Location: Peebles
(55.6412°N, 3.1714°W)
Time: 09:49:41
(UTC+01:00)

SPOT 3 Rocket - Pass Details

Date: 26 September 2021
Orbit: 779 x 794 km, 98.7° (Epoch: 21 October)

Event Time Altitude Azimuth Distance (km) Brightness Sun altitude
Exits shadow 22:11:17 50° 207° (SSW) 987 3.9 -25.8°
Maximum altitude 22:12:21 62° 257° (WSW) 878 3.8 -25.9°
Drops below altitude 10° 22:17:29 10° 339° (NNW) 2,349 6.8 -26.4°
Sets 22:19:51 0° 343° (NNW) 3,284 7.7 -26.7°
